Zurück zum Katalog

STARLINK-3080

AktivKommunikationVLEO
NORAD 49161·PAYLOAD·🇺🇸 United States

Gestartet Sep 14, 2021 von Vandenberg Space Force Base

Loading…

Nächste Überflüge (nächste 24 Stunden)

TLE

AktuellSource: CelesTrak SupGP

Epoche: Sep 15, 2026, 02:29 UTC

1 49161C 21082AH  26258.10395833  .00004027  00000+0  33751-3 0  2581
2 49161  70.0020 176.8541 0003006 273.5206 223.2456 14.98328694    17

Verfolge STARLINK-3080 in Echtzeit mit AllMySat

Download on the App Store